Angleton, TX

8:46 AM CDT on August 17, 2019 (GMT -0500)
Brazoria County

Weather History for KLBX - June, 2019

Change the Weather History Date:

Wednesday, June 5, 2019

  Actual Average Record
Temperature  
Mean Temperature 78 °F -  
Max Temperature 84 °F 86 °F 100 °F (2011)
Min Temperature 75 °F 70 °F 64 °F (2006)
Cooling Degree Days 14    
Growing Degree Days 28 (Base 50)    
Moisture  
Dew Point 75 °F    
Average Humidity 90    
Maximum Humidity 94    
Minimum Humidity 77    
Precipitation  
Precipitation 3.11 in - - ()
Sea Level Pressure  
Sea Level Pressure 29.79 in    
Wind  
Wind Speed 11 mph (SE)    
Max Wind Speed 24 mph    
Max Gust Speed 32 mph    
Visibility 6 miles    
Events Rain , Thunderstorm    
Averages and records for this station are not official NWS values.
T = Trace of Precipitation, MM = Missing Value Source: NWS Daily Summary

Daily Weather History Graph

Daily Weather History Graph

Search for Another Location

Airport or City:

Astronomy

Jun. 05, 2019 Rise Set
Actual Time 6:22 AM CDT 8:18 PM CDT
Civil Twilight 5:55 AM CDT 8:45 PM CDT
Nautical Twilight 5:23 AM CDT 9:17 PM CDT
Astronomical Twilight 4:48 AM CDT 9:52 PM CDT
Moon 8:28 AM CDT (6/5) 10:46 PM CDT (6/5)
Length of Visible Light 14h 49m
Length of Day
13h 55m
Waxing Crescent, 7% of the Moon is Illuminated
Jun 5
Waxing Crescent
Jun 10
First Quarter
Jun 17
Full
Jun 25
Last Quarter
Jul 2
New

Hourly Weather History & Observations

Time (CDT) Temp. Heat Index Dew Point Humidity Pressure Visibility Wind Dir Wind Speed Gust Speed Precip Events Conditions
12:53 AM 78.1 °F - 75.0 °F 90% 29.89 in 10.0 mi ENE 4.6 mph - N/A   Mostly Cloudy
1:53 AM 79.0 °F - 75.9 °F 90% 29.87 in 10.0 mi SE 10.4 mph - 0.01 in   Mostly Cloudy
2:53 AM 80.1 °F 85.4 °F 75.9 °F 87% 29.85 in 9.0 mi SE 11.5 mph - 0.00 in Rain Light Rain
3:00 AM 80.1 °F 85.4 °F 75.9 °F 87% 29.84 in 6.0 mi SE 13.8 mph - 0.01 in Rain , Thunderstorm Rain
3:15 AM 79.0 °F - 75.9 °F 90% 29.83 in 5.0 mi SE 12.7 mph - 0.04 in Rain Rain
3:30 AM 79.0 °F - 75.9 °F 90% 29.82 in 5.0 mi East 5.8 mph 17.3 mph 0.07 in Rain , Thunderstorm Thunderstorms and Rain
3:45 AM 79.0 °F - 75.9 °F 90% 29.84 in 4.0 mi SE 16.1 mph 26.5 mph 0.12 in Rain Heavy Rain
3:53 AM 78.1 °F - 73.9 °F 87% 29.84 in 3.0 mi SE 15.0 mph 24.2 mph 0.19 in Rain Heavy Rain
4:02 AM 77.0 °F - 73.0 °F 88% 29.85 in 2.5 mi SE 16.1 mph - 0.08 in Rain , Thunderstorm Heavy Thunderstorms and Rain
4:17 AM 77.0 °F - 73.9 °F 90% 29.85 in 3.0 mi East 10.4 mph - 0.17 in Rain , Thunderstorm Heavy Rain
4:27 AM 77.0 °F - 75.0 °F 94% 29.86 in 1.8 mi South 6.9 mph - 0.38 in Rain , Thunderstorm Heavy Rain
4:32 AM 77.0 °F - 75.0 °F 94% 29.86 in 0.8 mi SSE 6.9 mph - 0.65 in Rain , Thunderstorm Heavy Rain
4:38 AM 77.0 °F - 75.0 °F 94% 29.84 in 1.0 mi SE 5.8 mph - 0.75 in Rain Heavy Rain
4:53 AM 78.1 °F - 75.0 °F 90% 29.84 in 1.8 mi SSE 15.0 mph 25.3 mph 0.93 in Rain Heavy Rain
4:55 AM 78.1 °F - 75.0 °F 90% 29.84 in 2.0 mi SSE 11.5 mph 25.3 mph 0.00 in Rain Heavy Rain
5:03 AM 78.1 °F - 75.0 °F 90% 29.84 in 6.0 mi SSE 8.1 mph - 0.01 in Rain Light Rain
5:53 AM 77.0 °F - 75.0 °F 94% 29.82 in 10.0 mi SE 9.2 mph - 0.03 in Rain Light Rain
6:17 AM 78.1 °F - 75.0 °F 90% 29.82 in 10.0 mi SE 10.4 mph - 0.00 in   Overcast
6:24 AM 78.1 °F - 75.0 °F 90% 29.81 in 10.0 mi SE 11.5 mph - 0.00 in   Overcast
6:53 AM 78.1 °F - 73.9 °F 87% 29.82 in 10.0 mi SE 10.4 mph - 0.00 in   Overcast
7:01 AM 78.1 °F - 73.9 °F 87% 29.82 in 10.0 mi SE 15.0 mph 21.9 mph N/A   Overcast
7:15 AM 78.1 °F - 73.9 °F 87% 29.83 in 10.0 mi SE 12.7 mph - N/A   Overcast
7:53 AM 78.1 °F - 73.9 °F 87% 29.83 in 10.0 mi SE 8.1 mph - 0.00 in Rain Light Rain
8:04 AM 78.1 °F - 73.9 °F 87% 29.82 in 8.0 mi SE 9.2 mph - 0.01 in Rain Rain
8:27 AM 78.1 °F - 75.0 °F 90% 29.84 in 6.0 mi SSE 16.1 mph 20.7 mph 0.06 in Rain Rain
8:31 AM 78.1 °F - 73.9 °F 87% 29.84 in 5.0 mi SSE 20.7 mph 27.6 mph 0.07 in Rain , Thunderstorm Heavy Rain
8:40 AM 78.1 °F - 73.9 °F 87% 29.85 in 5.0 mi SSE 11.5 mph 27.6 mph 0.10 in Rain , Thunderstorm Heavy Rain
8:43 AM 77.0 °F - 73.9 °F 90% 29.85 in 5.0 mi SSE 11.5 mph - 0.11 in Rain Heavy Rain
8:51 AM 77.0 °F - 73.4 °F 89% 29.84 in 4.0 mi SSE 11.5 mph - 0.15 in Rain Heavy Rain
8:53 AM 77.0 °F - 73.9 °F 90% 29.84 in 3.0 mi SE 9.2 mph - 0.18 in Rain Heavy Rain
9:00 AM 77.0 °F - 73.9 °F 90% 29.84 in 2.0 mi SE 11.5 mph - 0.06 in Rain Heavy Rain
9:09 AM 75.9 °F - 73.9 °F 94% 29.84 in 6.0 mi SSE 11.5 mph - 0.07 in Rain Rain
9:34 AM 77.0 °F - 73.9 °F 90% 29.84 in 2.0 mi SE 11.5 mph - 0.21 in Rain Heavy Rain
9:39 AM 77.0 °F - 73.9 °F 90% 29.84 in 1.8 mi SSE 11.5 mph - 0.26 in Rain Heavy Rain
9:45 AM 77.0 °F - 75.0 °F 94% 29.84 in 2.0 mi SSE 20.7 mph 25.3 mph 0.33 in Rain Heavy Rain
9:53 AM 77.0 °F - 75.0 °F 94% 29.84 in 2.5 mi SSE 15.0 mph 26.5 mph 0.39 in Rain Heavy Rain
10:03 AM 77.0 °F - 75.0 °F 94% 29.83 in 3.0 mi SSE 16.1 mph 23.0 mph 0.05 in Rain Heavy Rain
10:07 AM 77.0 °F - 75.0 °F 94% 29.82 in 2.5 mi SE 10.4 mph 23.0 mph 0.09 in Rain Heavy Rain
10:13 AM 77.0 °F - 75.0 °F 94% 29.82 in 3.0 mi SE 15.0 mph 21.9 mph 0.10 in Rain Heavy Rain
10:26 AM 75.9 °F - 73.9 °F 94% 29.82 in 5.0 mi SE 11.5 mph 19.6 mph 0.14 in Rain Rain
10:53 AM 75.9 °F - 73.9 °F 94% 29.83 in 4.0 mi SE 11.5 mph - 0.21 in Rain Rain
11:02 AM 75.9 °F - 73.9 °F 94% 29.83 in 1.8 mi SE 10.4 mph - 0.07 in Rain Heavy Rain
11:25 AM 75.9 °F - 73.9 °F 94% 29.82 in 3.0 mi ESE 12.7 mph - 0.23 in Rain Rain
11:40 AM 77.0 °F - 73.9 °F 90% 29.81 in 2.5 mi East 12.7 mph 21.9 mph 0.28 in Rain Rain
11:53 AM 75.9 °F - 73.9 °F 94% 29.80 in 1.5 mi East 13.8 mph - 0.40 in Rain Heavy Rain
12:10 PM 75.9 °F - 73.9 °F 94% 29.78 in 2.0 mi East 15.0 mph 23.0 mph 0.13 in Rain Heavy Rain
12:17 PM 75.9 °F - 73.9 °F 94% 29.77 in 1.0 mi East 13.8 mph 21.9 mph 0.29 in Rain Heavy Rain
12:34 PM 77.0 °F - 75.0 °F 94% 29.77 in 2.0 mi ESE 16.1 mph 24.2 mph 0.43 in Rain Heavy Rain
12:43 PM 77.0 °F - 75.0 °F 94% 29.76 in 4.0 mi ESE 18.4 mph 31.1 mph 0.45 in Rain Rain
12:53 PM 78.1 °F - 75.0 °F 90% 29.75 in 6.0 mi ESE 17.3 mph 27.6 mph 0.45 in Rain Light Rain
12:58 PM 77.0 °F - 75.0 °F 94% 29.73 in 4.0 mi East 20.7 mph 28.8 mph 0.02 in Rain Light Rain
1:05 PM 78.1 °F - 75.0 °F 90% 29.73 in 1.8 mi ESE 15.0 mph 28.8 mph 0.06 in Rain Heavy Rain
1:18 PM 78.1 °F - 75.9 °F 93% 29.73 in 2.0 mi ESE 12.7 mph 27.6 mph 0.13 in Rain Heavy Rain
1:30 PM 78.1 °F - 75.9 °F 93% 29.73 in 1.0 mi SSE 17.3 mph 27.6 mph 0.21 in Rain Heavy Rain
1:42 PM 79.0 °F - 75.9 °F 90% 29.74 in 2.0 mi SSE 23.0 mph 32.2 mph 0.23 in Rain Heavy Rain
1:53 PM 79.0 °F - 75.9 °F 90% 29.74 in 10.0 mi SSE 24.2 mph 31.1 mph 0.23 in   Overcast
2:07 PM 77.0 °F - 73.9 °F 90% 29.74 in 7.0 mi SSE 16.1 mph 26.5 mph 0.01 in Rain Light Rain
2:35 PM 79.0 °F - 75.9 °F 90% 29.72 in 1.8 mi South 8.1 mph - 0.05 in Rain Heavy Rain
2:40 PM 79.0 °F - 75.9 °F 90% 29.72 in 3.0 mi South 6.9 mph - 0.05 in Rain Light Rain
2:53 PM 81.0 °F 87.3 °F 75.9 °F 85% 29.71 in 10.0 mi SSE 10.4 mph - 0.05 in   Overcast
3:34 PM 81.0 °F 87.9 °F 77.0 °F 88% 29.69 in 2.0 mi SE 10.4 mph - 0.03 in Rain Light Rain
3:39 PM 81.0 °F 88.6 °F 78.1 °F 91% 29.69 in 5.0 mi SE 8.1 mph - 0.03 in Rain Light Rain
3:53 PM 82.0 °F 91.0 °F 78.1 °F 88% 29.69 in 7.0 mi SW 5.8 mph - 0.03 in Rain Light Rain
4:20 PM 82.0 °F 90.2 °F 77.0 °F 85% 29.69 in 10.0 mi SW 12.7 mph 19.6 mph 0.01 in   Mostly Cloudy
4:53 PM 82.9 °F 90.2 °F 75.0 °F 77% 29.68 in 10.0 mi SSW 13.8 mph 20.7 mph 0.01 in   Mostly Cloudy
5:53 PM 82.0 °F 89.4 °F 75.9 °F 82% 29.68 in 10.0 mi WSW 10.4 mph 20.7 mph N/A   Overcast
6:50 PM 82.4 °F 89.5 °F 75.2 °F 79% 29.69 in 10.0 mi WSW 6.9 mph - N/A   Mostly Cloudy
6:53 PM 82.0 °F 89.4 °F 75.9 °F 82% 29.69 in 10.0 mi WSW 6.9 mph - N/A   Mostly Cloudy
7:21 PM 81.0 °F 87.3 °F 75.9 °F 85% 29.70 in 10.0 mi WNW 9.2 mph - N/A   Mostly Cloudy
7:33 PM 79.0 °F - 75.0 °F 88% 29.70 in 10.0 mi NW 6.9 mph - N/A   Mostly Cloudy
7:45 PM 78.1 °F - 73.9 °F 87% 29.70 in 10.0 mi Variable 6.9 mph - N/A   Mostly Cloudy
7:53 PM 78.1 °F - 75.0 °F 90% 29.71 in 10.0 mi NW 5.8 mph - N/A   Mostly Cloudy
8:22 PM 77.0 °F - 73.9 °F 90% 29.70 in 10.0 mi Variable 5.8 mph - N/A   Partly Cloudy
8:53 PM 77.0 °F - 73.9 °F 90% 29.72 in 10.0 mi Calm Calm - N/A   Clear
9:00 PM 77.0 °F - 73.9 °F 90% 29.73 in 10.0 mi Calm Calm - N/A   Scattered Clouds
9:10 PM 77.0 °F - 73.9 °F 90% 29.73 in 10.0 mi Calm Calm - N/A   Mostly Cloudy
9:53 PM 75.9 °F - 73.0 °F 91% 29.75 in 10.0 mi Calm Calm - N/A   Overcast
10:21 PM 75.9 °F - 73.9 °F 94% 29.76 in 10.0 mi Calm Calm - N/A   Overcast
10:53 PM 75.9 °F - 73.9 °F 94% 29.77 in 10.0 mi Calm Calm - N/A   Overcast
11:33 PM 75.9 °F - 73.9 °F 94% 29.78 in 10.0 mi Calm Calm - N/A   Overcast
11:49 PM 75.2 °F - 73.4 °F 94% 29.78 in 10.0 mi NW 3.5 mph - N/A   Overcast
11:51 PM 75.2 °F - 73.4 °F 94% 29.78 in 10.0 mi WNW 3.5 mph - N/A   Overcast
11:53 PM 75.9 °F - 73.9 °F 94% 29.78 in 10.0 mi NW 3.5 mph - N/A   Overcast